User: anonymous   Login
Location: Unspecified
(0.0000°N, 0.0000°E)
Time: 08:43:18
(UTC+00:00)
Language:

ADEOS - Orbit

View from above orbital plane
View from above orbital plane
View from above satellite
View from above satellite

Ground track
Ground track

The orbit is defined by the following mean orbital elements,

1 24277U          26103.87840797 +.00000000 +00000-0 +41122-4 0 00001
2 24277  98.8064 157.5093 0000507   2.1939 357.9245 14.30380275    03
Epoch (UTC): 13 April 2026 21:04:54
Eccentricity: 0.0000507
inclination: 98.8064°
perigee height: 790 km
apogee height: 791 km
right ascension of ascending node: 157.5093°
argument of perigee: 2.1939°
revolutions per day: 14.30380275
mean anomaly at epoch: 357.9245°

The dashed part of the orbit path shows where the satellite is in the earth's shadow,  

DLR